TITAN 3C TRANSTAGE DEB, 59983

Orbit data source: Space-Track

TITAN 3C TRANSTAGE DEB, 59983 is space debris in GEO originally from a launch on Thu, 26 Sep 1968 UTC launched from the Air Force Eastern Test Range (AFETR). Debris objects in space refer to the collection of defunct objects orbiting the Earth. Examples of debris include non-operational satellites, rocket bodies, and fragments generated from explosions, collisions, or faulty payload assembly.

Not visible in the next 10 days
Identifier
59983, 1968-081AR
Orbit
GEO
Country
Flag of USUS
Related business
Manufacturer
Unknown
Mission
Spacecraft
Bus & Motor
Unknown
Mass
Unknown
Launch date (UTC)
1968-09-26 (58 years ago)
Launch vehicle
Unknown
Launch site
Air Force Eastern Test Range (AFETR)
Object type
Payload
Rocket body
Debris
Shape & HBR
Unknown shape, 1.1 m
Radar Cross Section
RCS unknown

Expand to show TLE details & history
Last TLE update: 1 month ago

TLE from 1 month ago
0 TITAN 3C TRANSTAGE DEB
1 59983U 68081AR  26224.66299216 -.00000116  00000-0  00000-0 0  9993
2 59983   2.8375  59.7506 0205473  21.6802 339.5031  1.02054216  8534
Epoch: 2026-08-12T15:54Z
TLE epoch observation values (Epoch: 2026-08-12T15:54:42.522Z)
Latitude
0.00001°
Longitude
-139.69528°
Altitude
34,497.016 km
Speed
3.153 km/s
True Right ascension
04h 00m 22s
True Declination
0° 00' 00"
Sunlit
Object was in daylight at epoch
Visualization orbit readout
Latitude
Unknown
Longitude
Unknown
Altitude
Unknown
Speed
Unknown
Apparent Right ascension
Unknown
Apparent Declination
Unknown
Sunlit
N/A
Visualization observer readout
Local Sidereal Time
08:08:56
Azimuth
Unknown
Elevation
Unknown
Doppler factor
Unknown
Orbital elements
Apogee altitude
36,151.557 km
Perigee altitude
34,439.005 km
Semi-major axis
41,673.418 km
Eccentricity
0.02055
Inclination
2.8375°
RAAN
59.7506°
Arg. of periapsis
21.6802°
True anomaly
338.65837°
Mean anomaly
339.5031°
Eccentric anomaly
339.08279°
Mean motion
0.25513 °/min
Orbital period
1,411.07 mins
BSTAR
0
Loading maneuver chart data...
Computing Atmospheric mass density...

Documentation

Showing up to 5 results
|